User: anonymous   Login
Location: Sungai Buloh
(3.1000°N, 113.0000°E)
Time: 13:30:44
(UTC+00:00)
Language:

RUBIN 8/PSLV - Orbit

View from above orbital plane
View from above orbital plane
View from above satellite
View from above satellite

Ground track
Ground track

The orbit is defined by the following mean orbital elements,

1 32792U          26066.94813207 +.00000000 +00000-0 +23142-3 0 00005
2 32792  98.1447  66.2620 0023255 305.7639  54.1413 14.86096205    09
Epoch (UTC): 07 March 2026 22:45:18
Eccentricity: 0.0023255
inclination: 98.1447°
perigee height: 594 km
apogee height: 626 km
right ascension of ascending node: 66.2620°
argument of perigee: 305.7639°
revolutions per day: 14.86096205
mean anomaly at epoch: 54.1413°

The dashed part of the orbit path shows where the satellite is in the earth's shadow,  

DLR